Location: Zagreb
(45.8000°N, 16.0000°E)
Time: 09:09:25
(UTC+02:00)

Courier 1B Rocket - Pass Details

Date: 10 August 2022
Orbit: 920 x 1202 km, 28.2° (Epoch: 25 September)

Event Time Altitude Azimuth Distance (km) Brightness Sun altitude
Rises 21:17:42 0° 245° (WSW) 3,668 8.4 -10.7°
Reaches altitude 10° 21:21:50 10° 220° (SW) 2,777 7.4 -11.3°
Maximum altitude 21:24:57 14° 192° (SSW) 2,563 7.0 -11.8°
Drops below altitude 10° 21:28:09 10° 165° (SSE) 2,872 7.0 -12.2°
Enters shadow 21:28:35 - 162° (SSE) 2,949 7.0 -12.3°
Sets 21:32:35 0° 141° (SE) 3,895 - -12.8°
